Find Starlink 32036

NORAD ID: 60141 Int'l Des: 2024-120 Owner: SPXS Country: US Constellation: starlink operational
LEOCIRCULAR

Current View

Loading 3D Globe...

About Starlink 32036

Starlink 32036 (NORAD 60141) is a starlink constellation satellite (v2 mini) launched Jun 27, 2024 by SPXS of US. It operates in LEO, CIRCULAR orbit with a mass of 730.00 kg.

Upcoming Passes

Passes for default location (London). Set your location on the main map for personalized predictions.

Altitude History

Loading altitude history...

Two-Line Element Set

1 60141U 24120G 26263.02860972 -.00001014 00000-0 -18884-4 0 9995
2 60141 53.1593 134.1729 0001283 79.4664 280.6484 15.34391096126256
Epoch: Sep 20, 2026 • Age: 26 hours

Current Status

Altitude 466.8 km
Apogee / Perigee N/A
Velocity 7.64 km/s
Sub-Earth Point 45.61°N, 133.44°W
Launch Date Jun 27, 2024
Age 2.2 years
Type internet

Technical Details

Classification Payload
Mass 730.00 kg
Dry Mass 700.00 kg
Length 0.30 m
Span 29.00 m
Shape ? Box + pan
Manufacturer SPXS
Bus Type Starlink V2M
Phase Status In Orbit
Owner/State SPXS/US

Most Searched